This demonstration page uses our WeatherBlox Daily Observations layout. Learn more.

Left ArrowRight Arrow

Hourly Observations for August 30, 2015

Temp ( °F °C ) Dew Point ( °F °C ) Humidity (%) Winds ( mph kmh ) Pressure ( in mb ) Visibility ( mi km ) Precip ( " mm )
12:54 am 00:54 Cloudy with Mist and Fog 63 17.2 60 15.6 90 90 SSW 8 13 30.05 1018 5 8.0467 0 0
1:54 am 01:54 Cloudy with Mist and Fog 63 17.2 60 15.6 90 90 WSW 3 6 30.05 1018 5 8.0467 0 0
2:36 am 02:36 Cloudy with Mist and Fog 63 17 61 16 94 94 S 6 9 30.06 1018 4 6.43736 0 0
2:54 am 02:54 Cloudy with Mist and Fog 62 16.7 61 16.1 96 96 S 6 9 30.02 1017 4 6.43736 0 0
3:54 am 03:54 Cloudy with Mist and Fog 62 16.7 61 16.1 96 96 SSW 5 7 30.02 1017 2 3.21868 0 0
4:10 am 04:10 Cloudy with Mist and Fog 63 17 61 16 94 94 SSW 6 9 30 1016 6 9.65604 0 0
4:54 am 04:54 Cloudy with Mist and Fog 63 17.2 61 16.1 93 93 SSW 6 9 30.02 1017 6 9.65604 0 0
5:54 am 05:54 Cloudy with Mist and Fog 63 17.2 61 16.1 93 93 SSW 7 11 30.02 1017 6 9.65604 0 0
6:49 am 06:49 Cloudy 63 17 61 16 94 94 SSW 7 11 30.06 1018 8 12.87472 0 0
6:54 am 06:54 Cloudy 63 17.2 61 16.1 93 93 SW 7 11 30.03 1017 7 11.26538 0 0
7:15 am 07:15 Cloudy with Mist and Fog 63 17.2 61 16.1 93 93 WSW 8 13 30.06 1018 5 8.0467 0 0
7:54 am 07:54 Cloudy with Mist and Fog 63 17.2 61 16.1 93 93 SW 6 9 30.04 1017 3 4.82802 0 0
8:04 am 08:04 Cloudy with Mist and Fog 63 17 63 17 100 100 SW 7 11 30.06 1018 2 3.21868 0 0
8:37 am 08:37 Cloudy with Mist and Fog 62 16.7 61 16.1 96 96 SSW 6 9 30.06 1018 4 6.43736 0 0
8:54 am 08:54 Cloudy with Mist and Fog 63 17.2 61 16.1 93 93 SW 7 11 30.04 1017 4 6.43736 0 0
9:54 am 09:54 Cloudy with Mist and Fog 64 17.8 62 16.7 93 93 SSW 8 13 30.05 1018 5 8.0467 0 0
10:13 am 10:13 Cloudy with Mist and Fog 65 18.3 62 16.7 90 90 SSW 7 11 30.06 1018 6 9.65604 0 0
10:54 am 10:54 Cloudy 67 19.4 63 17.2 87 87 S 9 15 30.06 1018 8 12.87472 0 0
11:54 am 11:54 Cloudy 69 20.6 64 17.8 84 84 SSW 7 11 30.05 1018 9 14.48406 0 0
12:40 pm 12:40 Cloudy 73 23 64 18 74 74 S 9 15 30.03 1017 10 16.0934 0 0
12:54 pm 12:54 Cloudy 72 22.2 64 17.8 76 76 S 10 17 30.03 1017 9 14.48406 0 0
1:54 pm 13:54 Cloudy 74 23.3 65 18.3 74 74 S 13 20 30.03 1017 9 14.48406 0 0
2:32 pm 14:32 Cloudy 75 24 66 19 74 74 S 13 20 29.97 1015 10 16.0934 0 0
2:54 pm 14:54 Mostly Cloudy 76 24.4 66 18.9 72 72 SSW 13 20 30 1016 10 16.0934 0 0
3:54 pm 15:54 Sunny 78 25.6 66 18.9 67 67 SSE 13 20 29.98 1015 10 16.0934 0 0
4:54 pm 16:54 Sunny 78 25.6 66 18.9 67 67 S 10 17 29.96 1015 10 16.0934 0 0
5:54 pm 17:54 Sunny 77 25 67 19.4 71 71 S 12 19 29.95 1014 10 16.0934 0 0
6:54 pm 18:54 Sunny 76 24.4 67 19.4 74 74 S 12 19 29.94 1014 9 14.48406 0 0
7:54 pm 19:54 Sunny 72 22.2 67 19.4 84 84 S 5 7 29.94 1014 8 12.87472 0 0
8:54 pm 20:54 Clear 71 21.7 67 19.4 87 87 SSE 5 7 29.94 1014 9 14.48406 0 0
9:54 pm 21:54 Clear 68 20 66 18.9 93 93 SSE 5 7 29.96 1015 8 12.87472 0 0
10:54 pm 22:54 Clear 67 19.4 65 18.3 93 93 SSE 5 7 29.96 1014 7 11.26538 0 0
11:54 pm 23:54 Clear with Mist and Fog 66 18.9 64 17.8 93 93 SSE 7 11 29.95 1014 6 9.65604 0 0

Powered by AerisWeather